COSMOS 1953

Last updated on Tue Jul 14 2026 00:02:12 GMT+0000 (Coordinated Universal Time)

1 19210U 88050A 26194.50369950 .00004785 00000+0 16173-3 0 9997 2 19210 82.5060 31.4869 0011652 45.4060 314.8129 15.30323655 57015
UTC large
Height (km)
Speed (km/s)
/
Latitude / Longitude
Inclination (degrees)
Orbital Period (minutes)
Azimuth
Elevation
Range (km)
Doppler Factor

Next 0 passes for location: London (51.5072 / 0.1276)

No passes found over London.
COSMOS 1953